Location: Enborne
(51.3833°N, 1.3667°W)
Time: 14:06:58
(UTC+00:00)

Cosmos 1844 Rocket - Pass Details

Date: 26 January 2021
Orbit: 826 x 843 km, 71.0° (Epoch: 05 March)

Event Time Altitude Azimuth Distance (km) Brightness Sun altitude
Rises 18:08:24 0° 215° (SW) 3,389 6.7 -12.9°
Reaches altitude 10° 18:10:51 10° 217° (SW) 2,457 5.9 -13.3°
Maximum altitude 18:16:30 72° 303° (WNW) 886 2.9 -14.1°
Drops below altitude 10° 18:22:09 10° 28° (NNE) 2,463 4.8 -15.0°
Enters shadow 18:22:42 - 28° (NNE) 2,672 4.9 -15.1°
